Location: Kalungu
(1.3667°N, 32.2000°E)
Time: 02:37:35
(UTC+00:00)

Daily predictions for brighter satellites

Satellite Brightness Start Highest point End
(mag) Time Altitude Azimuth Time Altitude Azimuth Time Altitude Azimuth
CZ-3C R/B 4.5 00:06:50 18° E 00:06:50 18° E 00:10:14 10° E
BLOCK DM-SL R/B 3.7 00:59:51 76° WSW 01:00:51 85° S 07:41:41 10° E
NOSS 3-4 (A) 4.4 01:14:02 52° SSW 01:14:02 52° SSW 01:20:29 10° SSE
NOSS 3-4 (C) 4.4 01:14:07 53° SSW 01:14:07 53° SSW 01:20:35 10° SSE
Cosmos 2322 4.2 01:23:19 55° SE 01:23:19 55° SE 01:27:49 10° SSE
Hubble Space Telescope 3.8 01:30:03 10° SSE 01:31:12 11° SSE 01:32:20 10° SE
Myojo/LAPS 4.4 01:19:40 10° WSW 01:35:03 88° NNW 01:38:44 10° ENE
Cosmos 2360 Rocket 3.7 01:42:38 23° SSW 01:42:38 23° SSW 01:45:03 10° S
Cosmos 2333 Rocket 2.4 01:47:12 48° NNE 01:48:43 68° ENE 01:54:21 10° SSE
PAYLOAD A 4.0 01:50:08 67° SW 01:50:08 67° SW 01:54:32 10° SSW
H-2A R/B 4.2 01:53:24 22° S 01:53:24 22° S 01:54:50 10° SSW
ARIANE 5 DEB (SYLDA) 4.4 01:53:35 33° SW 01:56:10 60° S 02:20:51 10° E
Lacrosse 5 rocket 3.7 01:59:16 11° SSW 01:59:16 11° SSW 01:59:35 10° SSW
Tsikada Rocket 3.8 01:55:08 43° NNW 01:57:18 79° W 02:03:27 10° S
Cosmos 2228 Rocket 3.2 02:00:15 60° SW 02:00:15 60° SW 02:04:04 10° S
Cosmos 2237 Rocket 4.3 01:55:35 10° NNE 01:59:54 23° ENE 02:04:11 10° SE
Delta 202 3.6 02:00:18 56° NNW 02:00:24 56° NNW 02:05:47 10° ENE
Meteor 1-26 Rocket 4.0 02:02:52 42° NNW 02:04:47 79° W 02:10:17 10° S
CZ-3B R/B 3.5 01:58:39 31° NW 02:04:48 58° NNE 02:12:59 10° ESE
CZ-2C R/B 2.1 02:05:45 63° W 02:05:45 63° W 02:10:14 10° SSW
Ariane 42L Rocket 2.8 02:06:51 57° W 02:07:46 86° N 02:21:13 10° E
Cosmos 1464 Rocket 3.9 02:02:35 10° S 02:08:56 88° W 02:15:09 10° N
Cosmos 1633 Rocket 2.9 02:05:03 10° SSW 02:09:22 66° W 02:09:32 65° WNW
Spelda 3.1 02:10:18 40° SW 02:11:23 59° S 02:20:31 10° E
TIMED 4.5 02:12:47 57° W 02:12:57 57° WSW 02:17:14 10° S
Cosmos 1624 Rocket 3.9 02:09:09 10° SSW 02:14:21 66° WNW 02:19:35 10° N
Cosmos 1782 2.7 02:13:45 37° N 02:15:14 82° E 02:19:12 10° S
Cosmos 2263 Rocket 3.0 02:10:51 10° S 02:16:18 52° ESE 02:21:43 10° NNE
Cosmos 2219 Rocket 2.2 02:15:58 36° NW 02:18:06 59° WSW 02:23:40 10° S
Cosmos 2056 Rocket 3.4 02:14:20 10° SSW 02:19:25 59° WNW 02:24:26 10° N
Cosmos 1315 Rocket 2.9 02:17:09 23° N 02:19:36 77° E 02:23:43 10° S
FALCON 9 DEB 3.6 02:19:58 46° SW 02:19:58 46° SW 02:23:02 10° SSE
Cosmos 2227 4.1 02:16:05 10° SSW 02:21:47 89° WNW 02:27:30 10° NNE
ASTEX 1 4.2 02:19:47 10° SSW 02:24:04 30° W 02:24:04 30° W
Cosmos 1980 4.4 02:24:29 10° N 02:30:00 55° ENE 02:35:32 10° SSE
NOSS 0 Rocket 4.0 02:27:58 10° NNW 02:34:09 85° ENE 02:40:21 10° SSE
STARLINK-52 3.8 02:35:21 34° W 02:36:09 40° SW 02:39:29 10° SSE
GPS 2-14 Rocket1 4.3 02:38:32 17° NNW 02:40:24 24° NNE 02:43:44 10° ENE
COSMOS 2428 3.4 02:38:21 22° WNW 02:41:03 34° WSW 02:46:10 10° SSW
Cosmos 1420 Rocket 4.0 02:36:14 10° SSW 02:41:30 89° ESE 02:46:43 10° NNE
Cosmos 1933 Rocket 3.4 02:37:24 10° S 02:41:46 79° W 02:46:04 10° N
Cosmos 1484 Rocket 2.6 02:38:23 10° N 02:42:12 67° WNW 02:45:58 10° SSW
PSLV R/B 3.8 02:38:50 10° N 02:42:54 67° WNW 02:46:58 10° SSW
Meteor 1-31 Rocket 3.8 02:42:43 24° WNW 02:43:12 25° WNW 02:46:27 10° SW
CZ-3B R/B 2.9 02:41:35 18° NNW 02:43:42 38° NE 02:51:39 10° ESE
STARLINK-29 4.4 02:43:26 22° W 02:44:21 25° SW 02:47:17 10° S
ARIANE 5 DEB (SYLDA) 0.9 02:49:06 39° W 02:49:40 76° S 02:51:51 10° E
RESURS DK-1 3.8 02:48:59 18° W 02:50:09 21° WSW 02:53:17 10° SSW
SJ-12 3.8 02:46:29 10° N 02:50:33 80° WNW 02:54:37 10° SSW
ARIANE 5 R/B 2.9 02:47:54 17° W 02:50:43 84° N 02:57:34 10° E
COBE Rocket 4.0 02:53:01 10° SSE 02:58:08 84° E 03:03:05 10° N
CZ-4B R/B 3.6 02:56:47 10° NNE 03:02:25 75° ESE 03:08:04 10° S
ALOS 2.2 02:59:17 10° N 03:03:54 70° W 03:08:33 10° SSW
Cosmos 2251 Rocket 3.6 02:59:00 10° NNW 03:04:07 59° WSW 03:09:17 10° S
Cosmos 1812 3.1 03:00:32 10° N 03:04:20 66° E 03:08:08 10° SSE
Meteor 2-6 Rocket 4.5 02:59:50 10° NNW 03:05:28 53° W 03:11:14 10° S
Cosmos 1452 Rocket 3.5 03:00:57 10° SSW 03:06:09 65° WNW 03:11:21 10° N
PAYLOAD B 4.2 03:00:53 10° N 03:06:21 68° WNW 03:11:54 10° SSW
FENGYUN 3A 3.6 03:05:03 10° N 03:10:21 64° WNW 03:15:40 10° SSW
Hubble Space Telescope 1.3 03:08:21 10° SW 03:12:27 63° SSE 03:16:33 10° ENE
deb Centaur AC-2 4.1 03:09:27 10° WSW 03:13:47 54° NNW 03:18:00 10° NE
Elektron 1 4.3 03:11:22 10° SSW 03:14:25 84° WNW 03:19:35 10° NNE
GPS 2-04 Rocket1 3.4 03:11:11 10° WSW 03:14:43 34° NW 03:18:23 10° NNE
GPS 2-05 Rocket1 2.2 03:13:17 10° NW 03:15:50 69° NE 03:18:24 10° ESE
Cosmos 1634 Rocket 4.0 03:14:19 10° S 03:20:37 76° W 03:26:50 10° N
Sylda 4400 4.5 03:12:12 10° W 03:22:10 58° N 03:26:01 10° ENE
ARIANE 5 R/B 2.4 03:20:19 10° WSW 03:25:04 30° SSW 03:27:07 10° SE
ARIANE 5 R/B 4.1 04:01:40 10° W 04:39:04 88° N 04:43:24 10° E
